Regional Weather Roundup
Issued by NWS

Home | Current Version | Previous Version | Text Only | Print | Product List | Glossary On
Versions: 1 2 3 4 5 6 7 8 9 10 11 12 13 14 15 16 17 18 19 20 21 22 23 24 25 26 27 28
000
ASUS43 KMPX 100110
RWRMN
WEATHER ROUNDUP FOR MINNESOTA
NATIONAL WEATHER SERVICE TWIN CITIES/CHANHASSEN MN
800 PM CDT SUN MAY 09 2021


NOTE: "FAIR" INDICATES FEW OR NO CLOUDS BELOW 12,000 FEET WITH NO
SIGNIFICANT WEATHER AND/OR OBSTRUCTIONS TO VISIBILITY. N/A MEANS
CURRENT SKY AND/OR WEATHER CONDITIONS ARE NOT AVAILABLE.

MNZ060>063-068>070-100200-
   Twin Cities Metro

CITY           SKY/WX    TMP DP  RH WIND       PRES   REMARKS
TWIN CITIES    PTCLDY    56  26  31 NE14      30.03R
ST PAUL        CLEAR     57  26  30 N10       30.04R
CRYSTAL        CLEAR     56  23  27 NE6       30.02R
BLAINE         PTCLDY    57  23  26 N10       30.03R
LAKEVILLE      PTCLDY    55  21  26 N8        30.02R
EDEN PRAIRIE   CLEAR     56  25  30 NE7       30.01R
SOUTH ST PAUL  CLEAR     57  25  29 N10       30.03R
$$
MNZ001>005-007-008-013>017-022>024-027-028-100200-
   Northwest Minnesota

CITY           SKY/WX    TMP DP  RH WIND       PRES   REMARKS
BEMIDJI        CLEAR     47  23  39 NE15      30.12R
HALLOCK        CLOUDY    52  19  28 E14       30.18R
ROSEAU           N/A     50 N/A N/A NE16      30.19R
WARROAD        CLOUDY    45  30  57 NE14      30.21R
THIEF RVR FALL PTCLDY    48  22  35 NE12      30.17R
CROOKSTON      CLEAR     50  21  32 NE10      30.16R
FOSSTON        CLEAR     46  19  34 NE10      30.14R
DETROIT LAKES  CLEAR     54  23  30 NE13      30.08R
MOORHEAD       CLEAR     57  12  17 NE16      30.10R
PARK RAPIDS    MOCLDY    50  23  34 NE10G18   30.08R
MAHNOMEN       FAIR      49  25  38 NE13      30.11R
$$
MNZ006-009>011-018-025>026-100200-
   North Central Minnesota

CITY           SKY/WX    TMP DP  RH WIND       PRES   REMARKS
BAUDETTE       CLOUDY    44  22  41 NE13      30.19R
FLAG ISLAND    CLOUDY    45  21  39 NE13      30.20R
INTL FALLS     CLOUDY    43  22  43 NE6G17    30.18R
WASKISH        MOCLDY    45  21  39 NE8       30.17R
BIG FORK       CLOUDY    45  19  36 NE8       30.20R
LONGVILLE      CLOUDY    48  23  37 E6        30.10R
GRAND RAPIDS   CLOUDY    46  22  38 VRB5      30.14R
CRANE LAKE     CLOUDY    43  19  39 N3        30.19R
ORR            CLOUDY    43  16  33 CALM      30.14R
COOK           CLOUDY    43  19  39 NE6       30.15R
WALKER         CLOUDY    47  24  41 NE9       30.11R
$$
MNZ012-019>021-037-100200-
   Northeast Minnesota

CITY           SKY/WX    TMP DP  RH WIND       PRES   REMARKS
DULUTH         CLOUDY    41  25  53 E10       30.13R
ELY            CLOUDY    41  19  42 NE3       30.15R
HIBBING        CLOUDY    43  21  41 NE7       30.13R
EVELETH        CLOUDY    43  22  44 NE6       30.15R
DULUTH HARBOR  CLOUDY    41  34  75 NE14      30.16S
TWO HARBORS    CLOUDY    39  25  56 CALM      30.15R
SILVER BAY     CLOUDY    39  25  56 CALM      30.15R
GRAND MARAIS     N/A     39  32  76 SW5       30.16R
G MARAIS ARPRT CLOUDY    36  25  64 CALM      30.12R
$$
MNZ029>031-032-039>041-046>048-054>057-064-100200-
   West Central Minnesota

CITY           SKY/WX    TMP DP  RH WIND       PRES   REMARKS
FERGUS FALLS   CLEAR     55  25  30 NE9       30.02R
WHEATON        PTCLDY    57  14  18 NW9       30.06R
MORRIS         PTCLDY    57   9  14 NE5       30.04R
ALEXANDRIA     MOCLDY    57  18  21 N9        30.04R
ELBOW LAKE     FAIR      55  23  28 N8        30.05R
WADENA         PTCLDY    54  28  37 NE6       30.06R
GLENWOOD       PTCLDY    55  21  26 N6        30.04R
APPLETON       PTCLDY    61  18  18 N5        30.02S
BENSON         PTCLDY    55  23  28 N6        30.04R
ORTONVILLE     PTCLDY    57  21  24 NW8       30.03S
MADISON        PTCLDY    59  18  20 NW9       30.04S
WILLMAR        FAIR      57  19  23 NE6       30.06R
$$
MNZ033>034-036-042>043-049>051-058-059-100200-
   Central Minnesota

CITY           SKY/WX    TMP DP  RH WIND       PRES   REMARKS
ST CLOUD       MOCLDY    54  21  27 NE5       30.04R
SAUK CENTRE    FAIR      54  24  30 NE5       30.04R
PAYNESVILLE    PTCLDY    55  25  30 NE5       30.04R
AITKIN         MOCLDY    46  27  46 NE12      30.09R
PINE RIVER     PTCLDY    52  28  40 N9        30.12R
BRAINERD       PTCLDY    51  24  34 NE13      30.08R
STAPLES        PTCLDY    54  21  28 NE5       30.07R
LONG PRAIRIE   FAIR      52  25  35 NE6       30.05R
LITTLE FALLS   PTCLDY    54  18  24 E5        30.06R
CAMP RIPLEY    FAIR      54  23  30 NE13      30.06R
LITCHFIELD     CLEAR     55  27  33 NE6       30.04R
BUFFALO        CLEAR     56  23  27 MISG      30.04S
MAPLE LAKE     PTCLDY    56  26  31 N3        30.05R
HUTCHINSON     CLEAR     55  25  31 NE9       30.04S
$$
MNZ037-044-045-052-053-100200-
   East Central Minnesota

CITY           SKY/WX    TMP DP  RH WIND       PRES   REMARKS
PRINCETON      PTCLDY    55  25  30 NE7       30.05R
MORA           PTCLDY    50  28  43 NE5       30.08R
CAMBRIDGE      PTCLDY    55  34  44 NE7       30.06R
RUSH CITY      CLOUDY    50  25  37 NE9       30.07R
MOOSE LAKE     CLOUDY    43  27  52 NE7       30.11R
CLOQUET        CLOUDY    39  25  56 E8        30.12R
$$
MNZ071>073-080-081-089-090-097-098-100200-
   Southwest Minnesota

CITY           SKY/WX    TMP DP  RH WIND       PRES   REMARKS
MONTEVIDEO     PTCLDY    59  12  15 N8        30.03R
GRANITE FALLS  MOCLDY    60  23  23 N6        30.04R
CANBY          CLOUDY    57  20  24 NW6       30.04R
MARSHALL       MOCLDY    57  22  25 NW9       30.02S
REDWOOD FALLS  PTCLDY    58  19  22 N6        30.01R
OLIVIA         PTCLDY    57  19  23 NE8       30.02R
PIPESTONE        N/A     54  32  43 NW10      30.05R
WINDOM         MOCLDY    57  21  24 NW9       30.01S
WORTHINGTON    CLOUDY    54  34  46 W16       30.04R
JACKSON        CLOUDY    55  28  35 W10       30.02S
TRACY          CLOUDY    59  11  15 NW6       30.02R
SLAYTON        CLOUDY    55  28  35 W17       30.04R
$$
MNZ065>067-074>077-082>085-091>093-100200-
   South Central Minnesota

CITY           SKY/WX    TMP DP  RH WIND       PRES   REMARKS
MANKATO        PTCLDY    58  22  24 N8        30.02R
NEW ULM        PTCLDY    57  18  21 N7        30.01R
ST JAMES       MOCLDY    59  18  20 N7        30.00S
FAIRMONT       MOCLDY    60  21  22 N10       30.01R
GLENCOE        CLEAR     56  21  26 N6        30.03R
FARIBAULT      CLEAR     57  25  28 N6        30.01R
OWATONNA       PTCLDY    57  27  30 N10       30.01R
WASECA         PTCLDY    55  25  30 N9        30.02R
ALBERT LEA     PTCLDY    57  25  28 N5        30.00R
$$
MNZ078>079-086>088-094>096-100200-
   Southeast Minnesota

CITY           SKY/WX    TMP DP  RH WIND       PRES   REMARKS
ROCHESTER      MOCLDY    55  27  34 N10       30.00R
RED WING       CLEAR     57  21  24 N7        30.00R
STANTON        PTCLDY    53  28  37 N7        30.00R
DODGE CENTER   CLEAR     55  21  26 N6        30.01R
WINONA         PTCLDY   N/A N/A N/A NW7       29.99R
AUSTIN         PTCLDY    57  27  30 NW6       30.00R
PRESTON        PTCLDY    56  26  31 N5        30.00R
$$
ABBREVIATIONS USED IN REMARKS
   TC - TEMPERATURES IN CELSIUS
  WCI - WIND CHILL INDEX
   HX - HEAT INDEX
  VSB - VISIBILITY
$$



USA.gov is the U.S. government's official web portal to all federal, state and local government web resources and services.